| time (UTC) | temp F | wind direction | speed MPH | gust MPH | rain 1hr in | rain 24hr in | rain mn in | humidity % | barometer mb |
| 20260506100004 | 57 | 60 | 3.0 | 0.0 | 0.00 | 0.00 | 0.00 | 50 | 1014.0 |
| 20260506094504 | 57 | 60 | 3.0 | 0.0 | 0.00 | 0.00 | 0.00 | 50 | 1014.0 |
| 20260506093004 | 55 | 40 | 5.0 | 0.0 | 0.00 | 0.00 | 0.00 | 58 | 1014.0 |
| 20260506083003 | 50 | 340 | 5.0 | 0.0 | 0.00 | 0.00 | 0.00 | 71 | 1014.0 |
| 20260506081505 | 50 | 340 | 5.0 | 0.0 | 0.00 | 0.00 | 0.00 | 71 | 1014.0 |
| 20260506073004 | 46 | 0 | 2.0 | 0.0 | 0.00 | 0.00 | 0.00 | 75 | 1013.0 |
| 20260506044504 | 41 | 0 | 1.0 | 0.0 | 0.00 | 0.00 | 0.00 | 93 | 1013.0 |
| 20260506040005 | 45 | 0 | 2.0 | 0.0 | 0.00 | 0.00 | 0.00 | 75 | 1013.0 |
| 20260506034504 | 45 | 0 | 2.0 | 0.0 | 0.00 | 0.00 | 0.00 | 75 | 1013.0 |
| 20260506033005 | 46 | 90 | 3.0 | 0.0 | 0.00 | 0.00 | 0.00 | 70 | 1013.0 |
| 20260506031504 | 46 | 90 | 3.0 | 0.0 | 0.00 | 0.00 | 0.00 | 70 | 1013.0 |
| 20260506021504 | 46 | 0 | 1.0 | 0.0 | 0.00 | 0.00 | 0.00 | 70 | 1013.0 |
| 20260506014503 | 46 | 0 | 1.0 | 0.0 | 0.00 | 0.00 | 0.00 | 70 | 1013.0 |
| 20260506013005 | 48 | 0 | 1.0 | 0.0 | 0.00 | 0.00 | 0.00 | 66 | 1013.0 |
| 20260506010004 | 48 | 120 | 1.0 | 0.0 | 0.00 | 0.00 | 0.00 | 66 | 1014.0 |
| 20260506004504 | 48 | 120 | 1.0 | 0.0 | 0.00 | 0.00 | 0.00 | 66 | 1014.0 |
| 20260506001503 | 48 | 0 | 2.0 | 0.0 | 0.00 | 0.00 | 0.00 | 66 | 1013.0 |
| 20260505230003 | 54 | 0 | 2.0 | 0.0 | 0.00 | 0.00 | 0.00 | 46 | 1013.0 |
| 20260505224504 | 54 | 0 | 2.0 | 0.0 | 0.00 | 0.00 | 0.00 | 46 | 1013.0 |
| 20260505221505 | 54 | 350 | 3.0 | 0.0 | 0.00 | 0.00 | 0.00 | 46 | 1013.0 |
| 20260505220006 | 57 | 290 | 7.0 | 0.0 | 0.00 | 0.00 | 0.00 | 41 | 1013.0 |
| 20260505214504 | 57 | 290 | 7.0 | 0.0 | 0.00 | 0.00 | 0.00 | 41 | 1013.0 |
| 20260505213005 | 59 | 290 | 7.0 | 0.0 | 0.00 | 0.00 | 0.00 | 35 | 1013.0 |
| 20260505210005 | 59 | 300 | 9.0 | 0.0 | 0.00 | 0.00 | 0.00 | 35 | 1013.0 |
| 20260505204503 | 59 | 300 | 9.0 | 0.0 | 0.00 | 0.00 | 0.00 | 35 | 1013.0 |
| 20260505201504 | 59 | 310 | 13.0 | 0.0 | 0.00 | 0.00 | 0.00 | 35 | 1012.0 |
| 20260505194503 | 61 | 300 | 12.0 | 0.0 | 0.00 | 0.00 | 0.00 | 31 | 1012.0 |
| 20260505191504 | 63 | 300 | 14.0 | 0.0 | 0.00 | 0.00 | 0.00 | 31 | 1012.0 |
| 20260505190005 | 64 | 300 | 12.0 | 0.0 | 0.00 | 0.00 | 0.00 | 29 | 1011.0 |
| 20260505184503 | 64 | 300 | 12.0 | 0.0 | 0.00 | 0.00 | 0.00 | 29 | 1011.0 |
| 20260505181505 | 64 | 270 | 14.0 | 0.0 | 0.00 | 0.00 | 0.00 | 29 | 1011.0 |
| 20260505180005 | 64 | 270 | 13.0 | 0.0 | 0.00 | 0.00 | 0.00 | 27 | 1011.0 |
| 20260505173004 | 66 | 290 | 15.0 | 0.0 | 0.00 | 0.00 | 0.00 | 27 | 1011.0 |
| 20260505171503 | 66 | 290 | 15.0 | 0.0 | 0.00 | 0.00 | 0.00 | 27 | 1011.0 |
| 20260505170004 | 66 | 300 | 15.0 | 0.0 | 0.00 | 0.00 | 0.00 | 27 | 1011.0 |
| 20260505164504 | 66 | 300 | 15.0 | 0.0 | 0.00 | 0.00 | 0.00 | 27 | 1011.0 |
| 20260505163005 | 66 | 280 | 17.0 | 0.0 | 0.00 | 0.00 | 0.00 | 27 | 1011.0 |
| 20260505161504 | 66 | 280 | 17.0 | 0.0 | 0.00 | 0.00 | 0.00 | 27 | 1011.0 |
| 20260505153004 | 64 | 270 | 1.0 | 0.0 | 0.00 | 0.00 | 0.00 | 29 | 1012.0 |
| 20260505124504 | 64 | 230 | 1.0 | 0.0 | 0.00 | 0.00 | 0.00 | 34 | 1012.0 |
| 20260505120005 | 63 | 230 | 8.0 | 0.0 | 0.00 | 0.00 | 0.00 | 39 | 1013.0 |
| 20260505114503 | 63 | 230 | 8.0 | 0.0 | 0.00 | 0.00 | 0.00 | 39 | 1013.0 |
| 20260505113004 | 61 | 250 | 8.0 | 0.0 | 0.00 | 0.00 | 0.00 | 38 | 1013.0 |
| 20260505111504 | 61 | 250 | 8.0 | 0.0 | 0.00 | 0.00 | 0.00 | 38 | 1013.0 |